TimeMDT,TemperatureF,Dew PointF,Humidity,Sea Level PressureIn,VisibilityMPH,Wind Direction,Wind SpeedMPH,Gust SpeedMPH,PrecipitationIn,Events,Conditions,WindDirDegrees,DateUTC
12:58 AM,66.2,61.2,84,30.00,10.0,South,10.4,-,N/A,,Clear,170,2013-08-23 06:58:00
1:58 AM,65.1,61.5,88,29.99,10.0,South,15.0,-,N/A,,Clear,170,2013-08-23 07:58:00
2:58 AM,64.4,61.7,91,29.97,10.0,SSE,15.0,-,N/A,,Clear,150,2013-08-23 08:58:00
3:58 AM,63.5,61.3,93,29.96,10.0,SSE,15.0,-,N/A,,Clear,150,2013-08-23 09:58:00
4:58 AM,64.6,61.9,91,29.94,10.0,SSE,15.0,-,N/A,,Clear,160,2013-08-23 10:58:00
5:58 AM,65.8,63.0,90,29.92,10.0,SSE,12.7,-,N/A,,Overcast,160,2013-08-23 11:58:00
6:58 AM,66.0,63.3,91,29.92,10.0,SSE,23.0,29.9,N/A,,Overcast,160,2013-08-23 12:58:00
7:58 AM,66.9,64.0,90,29.91,10.0,South,19.6,-,N/A,,Partly Cloudy,170,2013-08-23 13:58:00
8:02 AM,68.0,64.4,88,29.97,10.0,SSE,18.4,23.0,N/A,,Partly Cloudy,160,2013-08-23 14:02:00
8:57 AM,71.6,66.2,83,29.96,10.0,South,19.6,26.5,N/A,,Light Drizzle,170,2013-08-23 14:57:00
8:58 AM,72.3,65.3,78,29.90,10.0,South,20.7,26.5,N/A,,Light Drizzle,170,2013-08-23 14:58:00
9:06 AM,71.6,66.2,83,29.96,10.0,South,20.7,27.6,N/A,,Clear,170,2013-08-23 15:06:00
9:58 AM,74.1,65.5,74,29.89,10.0,South,18.4,-,0.00,,Partly Cloudy,170,2013-08-23 15:58:00
10:58 AM,77.4,65.7,67,29.88,10.0,SSE,19.6,26.5,N/A,,Partly Cloudy,160,2013-08-23 16:58:00
11:58 AM,81.0,66.0,60,29.85,10.0,South,18.4,27.6,N/A,,Scattered Clouds,180,2013-08-23 17:58:00
12:58 PM,82.4,64.9,55,29.85,10.0,SSE,19.6,28.8,N/A,,Scattered Clouds,160,2013-08-23 18:58:00
1:58 PM,87.8,64.8,46,29.82,10.0,South,21.9,26.5,N/A,,Partly Cloudy,180,2013-08-23 19:58:00
2:58 PM,89.8,59.7,36,29.80,10.0,South,20.7,29.9,N/A,,Clear,180,2013-08-23 20:58:00
3:58 PM,90.5,60.3,36,29.76,10.0,SSW,24.2,29.9,N/A,,Clear,200,2013-08-23 21:58:00
4:58 PM,87.3,61.3,42,29.75,10.0,South,16.1,-,N/A,,Clear,190,2013-08-23 22:58:00
5:58 PM,89.4,58.3,35,29.75,10.0,South,13.8,-,N/A,,Clear,190,2013-08-23 23:58:00
6:58 PM,86.2,61.7,44,29.75,10.0,South,5.8,-,N/A,,Clear,170,2013-08-24 00:58:00
7:58 PM,80.8,61.5,52,29.76,10.0,SSE,9.2,-,N/A,,Clear,150,2013-08-24 01:58:00
8:58 PM,78.6,60.6,54,29.77,10.0,SE,9.2,-,N/A,,Clear,130,2013-08-24 02:58:00
9:58 PM,76.6,61.2,59,29.78,10.0,SSE,5.8,-,N/A,,Clear,160,2013-08-24 03:58:00
10:58 PM,75.7,61.5,61,29.75,10.0,SSE,8.1,-,N/A,,Clear,160,2013-08-24 04:58:00
11:58 PM,75.4,61.5,62,29.75,10.0,South,10.4,-,N/A,,Clear,180,2013-08-24 05:58:00